User: anonymous   Login
Location: Bretagne
(43.8474°N, 0.4650°W)
Time: 03:13:50
(UTC+00:00)
Language:

SJ-6F - Orbit

View from above orbital plane
View from above orbital plane
View from above satellite
View from above satellite

Ground track
Ground track

The orbit is defined by the following mean orbital elements,

1 33409U          26069.84274645 +.00000000 +00000-0 +25986-3 0 00008
2 33409  97.8674  88.0916 0020066  18.4565 341.7383 15.03884973    04
Epoch (UTC): 10 March 2026 20:13:33
Eccentricity: 0.0020066
inclination: 97.8674°
perigee height: 541 km
apogee height: 569 km
right ascension of ascending node: 88.0916°
argument of perigee: 18.4565°
revolutions per day: 15.03884973
mean anomaly at epoch: 341.7383°

The dashed part of the orbit path shows where the satellite is in the earth's shadow,  

DLR